View from above orbital plane
|
View from above satellite
|
Ground track
|
The orbit data is extracted from the following two-line orbital elements,
1 00058U 60013A 21107.36508507 .00000093 00000-0 16207-4 0 9990
2 00058 28.3288 352.8046 0164942 65.4102 296.3534 13.46325970979601
Epoch (UTC): | 17 April 2021 08:45:43 |
Eccentricity: | 0.0164942 |
inclination: | 28.3288° |
perigee height: | 962 km |
apogee height: | 1209 km |
right ascension of ascending node: | 352.8046° |
argument of perigee: | 65.4102° |
revolutions per day: | 13.46325970 |
mean anomaly at epoch: | 296.3534° |
orbit number at epoch: | 97960 |
The dashed part of the orbit path shows where the satellite is in the earth's shadow,
|
|